#timestamp,LO_Frequency,Hit 
1503176415.1,286047003.9,N
1503176435.9,286047001.3,N
1503176455.7,286047002.7,N
1503176475.5,286047001.1,N
1503176495.4,286047000.3,N
1503176515.2,286046996.8,N
1503176535.0,286046994.9,N
1503176535.9,286046994.9,N
1503176555.8,286046996.8,N
1503176575.6,286046999.5,N
1503176595.4,286046998.4,N
1503176615.2,286046997.6,N
1503176635.1,286046996.9,N
1503176636.0,286046996.9,N
1503176655.8,286047002.4,N
1503176675.6,286047004.3,N
1503176695.7,286047004.3,N
1503176715.5,286047005.3,N
1503176735.3,286047007.0,N
1503176755.2,286047007.6,N
1503176775.9,286047004.7,N
1503176795.7,286047001.6,N
1503176815.6,286047001.7,N
1503176835.4,286047001.4,N
1503176855.2,286047002.0,N
1503176875.1,286047002.1,N
1503176876.0,286047002.1,N
1503176895.8,286047001.2,N
1503176915.6,286046998.5,N
1503176935.5,286046996.9,N
1503176955.3,286046998.5,N
1503176975.1,286047002.7,N
1503176995.8,286047000.1,N
1503177015.7,286046998.3,N
1503177035.5,286046998.8,N
1503177055.3,286046998.6,N
1503177075.2,286046997.8,N
1503177095.9,286047002.4,N
1503177115.7,286047000.5,N
1503177135.6,286046996.5,N
1503177155.4,286046999.1,N
1503177175.2,286046994.9,N
1503177195.1,286046999.0,N
1503177196.0,286046999.0,N
1503177215.8,286046999.9,N
1503177235.6,286046999.5,N
1503177255.5,286046999.3,N
1503177275.3,286046999.3,N
1503177295.1,286047001.2,N
1503177315.9,286047002.2,N
1503177335.7,286047001.8,N
1503177355.5,286047005.0,N
1503177375.4,286047003.2,N
1503177395.2,286047005.6,N
1503177415.0,286047001.5,N
1503177415.9,286047001.5,N
1503177435.8,286047002.6,N
1503177455.6,286046998.2,N
1503177475.4,286047004.0,N
1503177495.2,286047004.3,N
1503177515.1,286047002.8,N
1503177516.0,286047002.8,N
1503177535.8,286047002.9,N
1503177555.6,286047004.9,N
1503177575.5,286047010.7,P
1503177595.3,286047005.0,N
1503177615.1,286047005.9,N
1503177635.9,286047003.6,N
1503177655.7,286047003.9,N
1503177675.5,286047001.7,N
1503177695.4,286047004.3,N
1503177715.2,286047007.4,N
1503177735.0,286047010.0,P
1503177735.9,286047010.0,P
1503177755.8,286047005.1,N
1503177775.6,286047001.8,N
1503177795.4,286047000.4,N
1503177815.3,286047002.3,N
1503177835.1,286047000.9,N
1503177855.8,286046998.9,N
1503177875.7,286046998.6,N
1503177895.5,286047000.7,N
1503177915.3,286047000.6,N
1503177935.2,286047000.1,N
1503177955.9,286046998.4,N
1503177975.7,286046996.6,N
1503177995.6,286046997.0,N
1503178015.4,286046997.2,N
1503178035.2,286046993.6,N
1503178055.0,286046993.6,N
1503178055.9,286046993.6,N
1503178075.8,286046996.0,N
1503178095.6,286046991.8,N
1503178115.4,286046993.4,N
1503178135.3,286046993.9,N
1503178155.1,286046992.0,N
1503178156.0,286046992.0,N
1503178175.8,286046994.3,N
1503178195.7,286046996.2,N
1503178215.5,286046995.1,N
1503178235.3,286046996.1,N
1503178255.2,286046993.9,N
1503178275.9,286046993.0,N
1503178295.7,286046988.5,N
1503178315.5,286046991.6,N
1503178335.4,286046988.7,P
1503178355.2,286046993.7,N
1503178375.1,286046992.3,N
1503178376.0,286046992.3,N
1503178395.8,286046998.0,N
1503178415.6,286046996.0,N
1503178435.4,286046994.9,N
1503178455.3,286046999.3,N
1503178475.1,286046998.4,N
1503178495.8,286047002.7,N
1503178515.7,286047000.7,N
1503178535.5,286046998.2,N
1503178555.3,286047000.4,N
1503178575.2,286047000.0,N
1503178595.9,286047000.3,N
1503178615.7,286047000.8,N
1503178635.6,286047000.9,N
1503178655.4,286047001.0,N
1503178675.2,286046997.3,N
1503178695.1,286046997.4,N
1503178696.0,286046997.4,N
1503178715.8,286046998.7,N
1503178735.6,286047001.1,N
1503178755.5,286046998.9,N
1503178775.3,286046998.8,N
1503178795.1,286046996.8,N
1503178815.8,286047001.1,N
1503178835.7,286046998.3,N
1503178855.5,286047000.0,N
1503178875.4,286047001.8,N
1503178895.2,286047001.3,N
1503178915.0,286047001.9,N
1503178915.9,286047001.9,N
1503178935.7,286047001.3,N
1503178955.6,286047004.1,N
1503178975.4,286046999.9,N
1503178995.2,286047004.8,N
1503179015.1,286047004.8,N
1503179016.0,286047004.8,N
1503179035.8,286047005.8,N
1503179055.6,286047005.7,N
1503179075.5,286047005.7,N
1503179095.3,286047005.7,N
1503179115.1,286047005.7,N
1503179135.9,286047005.9,N
1503179155.7,286047007.1,N
1503179175.5,286047006.4,N
1503179195.4,286047008.4,N
1503179215.2,286047006.1,N
1503179235.0,286047006.0,N
1503179235.9,286047006.0,N
1503179255.8,286047003.6,N
1503179275.6,286047003.7,N
1503179295.4,286047003.0,N
1503179315.3,286047001.8,N
1503179335.1,286047003.0,N
1503179336.0,286047003.0,N
1503179355.8,286047006.9,N
1503179375.7,286047005.7,N
1503179395.5,286047001.8,N
1503179415.3,286047001.3,N
1503179435.1,286047005.3,N
1503179455.9,286047005.1,N
1503179475.7,286047003.2,N
1503179495.6,286047005.7,P
1503179515.4,286047000.0,N
1503179535.2,286047000.1,N
1503179555.0,286047002.6,N
1503179556.0,286047002.6,N
1503179575.8,286047002.6,N
1503179595.6,286046998.6,N
1503179615.4,286047001.2,N
1503179635.3,286047000.4,N
1503179655.1,286046998.4,N
1503179675.8,286046999.8,N
1503179695.7,286046999.4,N
1503179715.5,286046998.6,N
1503179735.3,286046999.6,N
1503179755.2,286046998.9,N
1503179775.9,286046996.5,N
1503179795.7,286046997.3,N
1503179815.6,286046997.4,N
1503179835.4,286046999.0,N
1503179855.2,286046999.4,N
1503179875.0,286046998.8,N
1503179876.0,286046998.8,N
1503179895.8,286046997.0,N
1503179915.6,286046999.0,N
1503179935.4,286047002.1,N
1503179955.3,286047002.0,N
1503179975.1,286047002.5,N
1503179995.8,286047000.3,N
